QPF
0.07 0.07 0.07 0.06 0.06 0.07 0.06 0.05 0.06 0.07 0.06 0.06 0.09 0.09 0.08 0.06 0.05 0.06 0.09 0.11 0.09 0.07 0.07 0.07 0.06 0.05 0.05 0.03 0.02 0.02 0.02 0.02 0.03 0.03 0.03 0.04 0.05 0.09 0.11 0.09 0.07 0.05 0.04
0.08 0.09 0.08 0.07 0.09 0.13 0.14 0.09 0.08 0.06 0.06 0.06 0.06 0.06 0.05 0.05 0.05 0.07 0.08 0.10 0.08 0.06 0.06 0.06 0.05 0.05 0.06 0.05 0.03 0.03 0.02 0.03 0.03 0.03 0.03 0.03 0.04 0.10 0.13 0.11 0.07 0.05 0.04
0.09 0.11 0.11 0.11 0.13 0.20 0.21 0.16 0.12 0.09 0.07 0.06 0.06 0.06 0.05 0.06 0.06 0.07 0.07 0.07 0.05 0.05 0.05 0.06 0.06 0.06 0.06 0.06 0.05 0.05 0.04 0.04 0.04 0.03 0.03 0.04 0.06 0.10 0.13 0.07 0.06 0.04 0.02
0.06 0.09 0.11 0.13 0.15 0.19 0.20 0.16 0.12 0.10 0.09 0.07 0.07 0.06 0.04 0.06 0.07 0.08 0.09 0.08 0.06 0.05 0.06 0.07 0.07 0.06 0.06 0.06 0.07 0.08 0.06 0.04 0.04 0.04 0.05 0.05 0.07 0.09 0.11 0.07 0.06 0.04 0.02
0.06 0.05 0.07 0.09 0.12 0.15 0.16 0.13 0.10 0.08 0.08 0.08 0.09 0.09 0.08 0.10 0.08 0.10 0.11 0.08 0.08 0.08 0.08 0.09 0.09 0.07 0.06 0.06 0.09 0.13 0.10 0.07 0.05 0.05 0.06 0.06 0.06 0.09 0.09 0.07 0.06 0.05 0.04
0.06 0.05 0.05 0.05 0.07 0.09 0.09 0.07 0.06 0.06 0.07 0.07 0.08 0.10 0.12 0.13 0.11 0.10 0.12 0.12 0.13 0.12 0.10 0.10 0.09 0.06 0.05 0.06 0.09 0.12 0.12 0.09 0.08 0.07 0.08 0.06 0.07 0.08 0.08 0.07 0.06 0.04 0.04
0.04 0.04 0.04 0.04 0.04 0.04 0.04 0.04 0.05 0.06 0.06 0.06 0.07 0.08 0.11 0.12 0.13 0.10 0.10 0.13 0.14 0.12 0.10 0.10 0.08 0.06 0.05 0.05 0.07 0.07 0.08 0.08 0.08 0.07 0.08 0.08 0.08 0.08 0.07 0.06 0.06 0.05 0.04
0.04 0.04 0.04 0.03 0.03 0.03 0.03 0.03 0.04 0.04 0.04 0.05 0.06 0.07 0.11 0.13 0.15 0.12 0.09 0.09 0.12 0.11 0.10 0.09 0.08 0.08 0.07 0.07 0.07 0.06 0.06 0.08 0.08 0.08 0.08 0.08 0.07 0.06 0.04 0.04 0.04 0.03 0.03
0.04 0.04 0.04 0.05 0.05 0.04 0.04 0.04 0.05 0.04 0.04 0.05 0.04 0.04 0.06 0.08 0.10 0.11 0.09 0.09 0.10 0.11 0.10 0.08 0.08 0.09 0.09 0.07 0.06 0.05 0.05 0.05 0.06 0.09 0.09 0.06 0.04 0.03 0.03 0.03 0.03 0.03 0.02
0.03 0.03 0.04 0.04 0.04 0.05 0.05 0.06 0.07 0.06 0.05 0.05 0.05 0.04 0.04 0.05 0.06 0.07 0.07 0.08 0.09 0.08 0.08 0.07 0.06 0.07 0.06 0.06 0.05 0.05 0.04 0.04 0.05 0.07 0.08 0.07 0.05 0.04 0.03 0.03 0.03 0.03 0.02
0.02 0.02 0.02 0.03 0.03 0.04 0.06 0.06 0.06 0.05 0.04 0.04 0.04 0.05 0.05 0.04 0.04 0.04 0.05 0.06 0.07 0.07 0.06 0.06 0.05 0.05 0.04 0.04 0.03 0.03 0.03 0.04 0.04 0.04 0.05 0.06 0.06 0.06 0.05 0.04 0.04 0.03 0.03
0.01 0.01 0.01 0.02 0.03 0.03 0.04 0.07 0.08 0.05 0.03 0.02 0.02 0.03 0.03 0.04 0.05 0.04 0.04 0.05 0.06 0.06 0.05 0.04 0.03 0.03 0.03 0.02 0.02 0.02 0.02 0.03 0.04 0.04 0.04 0.05 0.04 0.04 0.04 0.04 0.05 0.05 0.04
0.00 0.00 0.00 0.01 0.02 0.02 0.05 0.05 0.06 0.07 0.05 0.03 0.03 0.04 0.04 0.04 0.05 0.05 0.05 0.05 0.06 0.07 0.07 0.06 0.05 0.04 0.03 0.02 0.01 0.02 0.02 0.03 0.04 0.05 0.05 0.05 0.04 0.03 0.03 0.04 0.05 0.06 0.05
0.00 0.00 0.01 0.01 0.02 0.02 0.03 0.05 0.05 0.05 0.06 0.07 0.06 0.05 0.04 0.04 0.05 0.05 0.06 0.06 0.06 0.06 0.06 0.05 0.05 0.04 0.03 0.02 0.02 0.03 0.02 0.03 0.04 0.05 0.05 0.05 0.06 0.05 0.05 0.06 0.06 0.06 0.05
0.00 0.01 0.01 0.01 0.02 0.03 0.04 0.04 0.04 0.03 0.04 0.05 0.06 0.05 0.04 0.04 0.03 0.03 0.04 0.04 0.04 0.05 0.04 0.03 0.03 0.03 0.02 0.02 0.02 0.02 0.02 0.04 0.04 0.04 0.05 0.05 0.05 0.05 0.05 0.06 0.07 0.08 0.08
0.01 0.01 0.01 0.01 0.01 0.03 0.05 0.06 0.05 0.04 0.03 0.03 0.03 0.03 0.03 0.03 0.02 0.02 0.02 0.03 0.03 0.03 0.03 0.02 0.02 0.03 0.03 0.02 0.02 0.02 0.03 0.04 0.04 0.04 0.03 0.03 0.03 0.04 0.04 0.03 0.03 0.05 0.06
0.01 0.01 0.01 0.01 0.01 0.01 0.02 0.04 0.05 0.04 0.04 0.04 0.03 0.02 0.02 0.02 0.02 0.02 0.02 0.03 0.03 0.02 0.02 0.02 0.01 0.02 0.02 0.02 0.02 0.03 0.03 0.04 0.04 0.03 0.03 0.02 0.02 0.03 0.03 0.03 0.02 0.02 0.02
0.02 0.01 0.01 0.01 0.01 0.01 0.01 0.01 0.02 0.03 0.04 0.05 0.04 0.03 0.03 0.03 0.03 0.03 0.03 0.02 0.03 0.03 0.03 0.02 0.02 0.02 0.01 0.02 0.02 0.03 0.04 0.04 0.03 0.03 0.03 0.03 0.03 0.04 0.05 0.05 0.04 0.03 0.02
0.02 0.02 0.01 0.01 0.02 0.01 0.01 0.01 0.01 0.02 0.03 0.03 0.03 0.04 0.04 0.04 0.03 0.02 0.03 0.03 0.04 0.04 0.04 0.03 0.02 0.03 0.03 0.02 0.02 0.02 0.04 0.05 0.04 0.05 0.04 0.04 0.05 0.05 0.06 0.06 0.05 0.04 0.03
0.02 0.02 0.01 0.02 0.03 0.02 0.01 0.01 0.01 0.01 0.02 0.02 0.03 0.03 0.03 0.03 0.02 0.02 0.03 0.04 0.05 0.06 0.06 0.05 0.04 0.03 0.03 0.02 0.02 0.02 0.04 0.04 0.04 0.04 0.05 0.05 0.06 0.06 0.05 0.05 0.05 0.04 0.03
0.03 0.03 0.03 0.02 0.03 0.02 0.01 0.01 0.01 0.02 0.02 0.02 0.02 0.02 0.02 0.02 0.02 0.02 0.02 0.03 0.03 0.03 0.04 0.04 0.04 0.03 0.03 0.03 0.03 0.03 0.03 0.04 0.04 0.05 0.05 0.05 0.05 0.05 0.04 0.03 0.04 0.04 0.03
0.03 0.03 0.03 0.03 0.02 0.02 0.02 0.02 0.02 0.01 0.02 0.02 0.02 0.02 0.03 0.03 0.02 0.03 0.04 0.04 0.04 0.04 0.04 0.04 0.03 0.02 0.03 0.04 0.04 0.04 0.04 0.04 0.04 0.05 0.04 0.04 0.04 0.04 0.04 0.04 0.03 0.03 0.03
0.03 0.03 0.03 0.04 0.03 0.03 0.03 0.03 0.04 0.03 0.02 0.02 0.02 0.02 0.03 0.03 0.03 0.03 0.03 0.04 0.03 0.03 0.04 0.04 0.04 0.03 0.03 0.03 0.04 0.03 0.03 0.04 0.04 0.03 0.04 0.04 0.03 0.03 0.03 0.04 0.04 0.04 0.03
0.05 0.05 0.05 0.06 0.05 0.04 0.05 0.04 0.05 0.05 0.04 0.03 0.02 0.02 0.02 0.02 0.02 0.03 0.04 0.03 0.03 0.03 0.03 0.03 0.02 0.01 0.02 0.02 0.03 0.03 0.04 0.03 0.02 0.02 0.02 0.02 0.03 0.02 0.02 0.03 0.03 0.04 0.03
0.08 0.07 0.06 0.05 0.04 0.04 0.05 0.05 0.07 0.07 0.05 0.05 0.04 0.05 0.05 0.04 0.04 0.07 0.07 0.04 0.03 0.03 0.03 0.02 0.01 0.01 0.02 0.03 0.03 0.03 0.03 0.02 0.01 0.01 0.02 0.03 0.02 0.02 0.02 0.02 0.02 0.03 0.03
0.08 0.06 0.04 0.03 0.03 0.03 0.04 0.05 0.06 0.07 0.06 0.05 0.05 0.05 0.05 0.05 0.05 0.06 0.05 0.03 0.03 0.03 0.03 0.03 0.02 0.02 0.02 0.03 0.03 0.02 0.02 0.02 0.01 0.01 0.01 0.01 0.02 0.02 0.02 0.01 0.01 0.02 0.02
MSLP
1015.14 1015.17 1015.18 1015.19 1015.20 1015.24 1015.28 1015.34 1015.39 1015.41 1015.38 1015.29 1015.15 1014.98 1014.80 1014.63 1014.52 1014.47 1014.49 1014.58 1014.73 1014.92 1015.14 1015.37 1015.62 1015.89 1016.16 1016.45 1016.75 1017.04 1017.32 1017.57 1017.79 1017.98 1018.15 1018.31 1018.47 1018.64 1018.84 1019.06 1019.29 1019.51 1019.73
1014.96 1015.00 1015.03 1015.05 1015.08 1015.12 1015.17 1015.22 1015.27 1015.29 1015.27 1015.18 1015.05 1014.87 1014.66 1014.46 1014.28 1014.15 1014.10 1014.12 1014.22 1014.38 1014.59 1014.85 1015.13 1015.42 1015.71 1016.01 1016.30 1016.57 1016.82 1017.06 1017.27 1017.47 1017.65 1017.84 1018.04 1018.24 1018.47 1018.70 1018.93 1019.15 1019.37
1014.64 1014.70 1014.76 1014.81 1014.86 1014.92 1014.99 1015.06 1015.11 1015.14 1015.13 1015.07 1014.96 1014.79 1014.58 1014.35 1014.13 1013.95 1013.83 1013.78 1013.81 1013.93 1014.11 1014.35 1014.62 1014.91 1015.20 1015.48 1015.74 1015.98 1016.21 1016.41 1016.61 1016.81 1017.02 1017.23 1017.47 1017.71 1017.96 1018.22 1018.47 1018.70 1018.93
1014.28 1014.35 1014.44 1014.53 1014.62 1014.71 1014.79 1014.87 1014.94 1014.99 1015.00 1014.98 1014.90 1014.76 1014.57 1014.35 1014.12 1013.90 1013.72 1013.61 1013.58 1013.63 1013.76 1013.96 1014.19 1014.45 1014.71 1014.95 1015.16 1015.35 1015.53 1015.69 1015.87 1016.06 1016.27 1016.51 1016.76 1017.04 1017.32 1017.60 1017.87 1018.13 1018.38
1013.95 1014.04 1014.16 1014.29 1014.41 1014.52 1014.62 1014.71 1014.79 1014.86 1014.90 1014.91 1014.87 1014.78 1014.65 1014.46 1014.24 1014.01 1013.81 1013.65 1013.56 1013.55 1013.61 1013.74 1013.92 1014.11 1014.31 1014.49 1014.64 1014.77 1014.88 1014.99 1015.12 1015.28 1015.48 1015.71 1015.97 1016.26 1016.56 1016.86 1017.15 1017.42 1017.69
1013.75 1013.85 1013.99 1014.14 1014.29 1014.42 1014.53 1014.62 1014.71 1014.78 1014.84 1014.88 1014.90 1014.88 1014.81 1014.68 1014.51 1014.30 1014.09 1013.91 1013.77 1013.70 1013.69 1013.75 1013.85 1013.98 1014.10 1014.20 1014.28 1014.33 1014.37 1014.41 1014.47 1014.58 1014.73 1014.93 1015.16 1015.43 1015.72 1016.01 1016.30 1016.59 1016.87
1013.72 1013.82 1013.97 1014.14 1014.30 1014.44 1014.55 1014.64 1014.71 1014.78 1014.86 1014.93 1015.00 1015.05 1015.05 1015.00 1014.89 1014.73 1014.55 1014.36 1014.20 1014.08 1014.01 1014.00 1014.03 1014.07 1014.12 1014.14 1014.14 1014.11 1014.07 1014.03 1014.01 1014.03 1014.11 1014.24 1014.41 1014.63 1014.87 1015.12 1015.39 1015.66 1015.94
1013.86 1013.96 1014.11 1014.29 1014.45 1014.59 1014.69 1014.77 1014.82 1014.89 1014.97 1015.07 1015.18 1015.29 1015.37 1015.40 1015.37 1015.28 1015.13 1014.96 1014.79 1014.64 1014.53 1014.46 1014.42 1014.40 1014.38 1014.33 1014.26 1014.15 1014.02 1013.89 1013.78 1013.71 1013.68 1013.71 1013.80 1013.92 1014.08 1014.27 1014.47 1014.70 1014.95
1014.13 1014.23 1014.39 1014.56 1014.73 1014.86 1014.96 1015.01 1015.05 1015.10 1015.18 1015.29 1015.44 1015.60 1015.75 1015.86 1015.91 1015.88 1015.78 1015.64 1015.48 1015.32 1015.18 1015.07 1014.98 1014.91 1014.83 1014.73 1014.59 1014.42 1014.21 1014.00 1013.79 1013.61 1013.48 1013.39 1013.36 1013.38 1013.43 1013.52 1013.64 1013.79 1013.98
1014.46 1014.57 1014.73 1014.92 1015.09 1015.23 1015.31 1015.35 1015.38 1015.41 1015.48 1015.61 1015.78 1015.98 1016.18 1016.34 1016.46 1016.49 1016.44 1016.33 1016.19 1016.03 1015.87 1015.74 1015.62 1015.52 1015.40 1015.26 1015.07 1014.85 1014.58 1014.29 1013.99 1013.71 1013.47 1013.28 1013.13 1013.02 1012.96 1012.94 1012.95 1013.01 1013.12
1014.80 1014.92 1015.10 1015.30 1015.49 1015.63 1015.72 1015.76 1015.78 1015.80 1015.86 1015.98 1016.16 1016.38 1016.61 1016.82 1016.98 1017.06 1017.05 1016.97 1016.84 1016.69 1016.53 1016.39 1016.25 1016.13 1015.99 1015.82 1015.60 1015.33 1015.01 1014.66 1014.30 1013.94 1013.61 1013.31 1013.06 1012.85 1012.68 1012.55 1012.47 1012.42 1012.42
1015.07 1015.22 1015.43 1015.66 1015.87 1016.04 1016.15 1016.19 1016.21 1016.23 1016.29 1016.40 1016.58 1016.80 1017.05 1017.28 1017.46 1017.56 1017.58 1017.53 1017.41 1017.26 1017.10 1016.95 1016.81 1016.66 1016.51 1016.32 1016.08 1015.78 1015.42 1015.03 1014.62 1014.20 1013.80 1013.44 1013.11 1012.83 1012.58 1012.36 1012.18 1012.03 1011.93
1015.29 1015.47 1015.72 1015.98 1016.23 1016.42 1016.56 1016.62 1016.65 1016.67 1016.73 1016.83 1016.99 1017.21 1017.45 1017.68 1017.87 1017.99 1018.02 1017.98 1017.87 1017.73 1017.57 1017.41 1017.25 1017.10 1016.92 1016.71 1016.45 1016.12 1015.74 1015.32 1014.87 1014.42 1013.98 1013.58 1013.22 1012.89 1012.59 1012.31 1012.06 1011.83 1011.63
1015.44 1015.67 1015.95 1016.25 1016.53 1016.76 1016.92 1017.02 1017.07 1017.10 1017.15 1017.24 1017.39 1017.59 1017.82 1018.04 1018.22 1018.34 1018.38 1018.34 1018.24 1018.09 1017.93 1017.76 1017.59 1017.41 1017.22 1016.98 1016.69 1016.34 1015.94 1015.49 1015.02 1014.54 1014.10 1013.68 1013.31 1012.97 1012.65 1012.35 1012.05 1011.76 1011.48
1015.57 1015.83 1016.14 1016.47 1016.78 1017.04 1017.24 1017.36 1017.43 1017.47 1017.52 1017.61 1017.75 1017.93 1018.14 1018.35 1018.52 1018.63 1018.67 1018.63 1018.53 1018.38 1018.21 1018.03 1017.84 1017.64 1017.42 1017.15 1016.83 1016.45 1016.01 1015.54 1015.05 1014.57 1014.11 1013.71 1013.34 1013.01 1012.70 1012.40 1012.08 1011.75 1011.41
1015.70 1015.97 1016.29 1016.64 1016.97 1017.26 1017.48 1017.63 1017.72 1017.78 1017.83 1017.92 1018.05 1018.21 1018.41 1018.60 1018.76 1018.86 1018.90 1018.86 1018.76 1018.62 1018.44 1018.25 1018.04 1017.81 1017.55 1017.25 1016.89 1016.47 1016.00 1015.50 1014.99 1014.49 1014.04 1013.64 1013.28 1012.97 1012.68 1012.39 1012.07 1011.72 1011.34
1015.83 1016.10 1016.42 1016.77 1017.11 1017.41 1017.65 1017.82 1017.93 1018.01 1018.07 1018.16 1018.28 1018.43 1018.61 1018.79 1018.94 1019.04 1019.07 1019.03 1018.94 1018.79 1018.61 1018.41 1018.18 1017.93 1017.64 1017.31 1016.91 1016.46 1015.95 1015.41 1014.87 1014.36 1013.89 1013.48 1013.13 1012.83 1012.55 1012.27 1011.95 1011.59 1011.18
1015.96 1016.20 1016.50 1016.84 1017.18 1017.49 1017.75 1017.94 1018.07 1018.16 1018.24 1018.33 1018.44 1018.59 1018.75 1018.91 1019.05 1019.14 1019.16 1019.13 1019.03 1018.89 1018.71 1018.49 1018.26 1017.99 1017.69 1017.32 1016.90 1016.42 1015.88 1015.31 1014.73 1014.18 1013.68 1013.25 1012.88 1012.57 1012.28 1012.00 1011.69 1011.32 1010.90
1016.06 1016.27 1016.54 1016.86 1017.20 1017.51 1017.78 1017.98 1018.13 1018.24 1018.33 1018.42 1018.53 1018.66 1018.80 1018.95 1019.07 1019.14 1019.16 1019.11 1019.02 1018.87 1018.69 1018.48 1018.24 1017.97 1017.65 1017.28 1016.85 1016.34 1015.78 1015.18 1014.58 1013.99 1013.44 1012.97 1012.56 1012.21 1011.89 1011.59 1011.26 1010.89 1010.45
1016.12 1016.29 1016.54 1016.84 1017.17 1017.48 1017.76 1017.98 1018.14 1018.26 1018.36 1018.45 1018.55 1018.66 1018.78 1018.90 1018.99 1019.04 1019.03 1018.97 1018.86 1018.71 1018.52 1018.31 1018.08 1017.81 1017.50 1017.14 1016.71 1016.21 1015.65 1015.03 1014.40 1013.77 1013.18 1012.64 1012.18 1011.77 1011.40 1011.06 1010.70 1010.31 1009.87
1016.13 1016.27 1016.50 1016.79 1017.11 1017.43 1017.72 1017.95 1018.13 1018.26 1018.35 1018.43 1018.51 1018.60 1018.69 1018.77 1018.82 1018.83 1018.79 1018.71 1018.57 1018.40 1018.20 1017.99 1017.76 1017.51 1017.22 1016.88 1016.47 1015.99 1015.44 1014.83 1014.18 1013.53 1012.89 1012.29 1011.75 1011.27 1010.84 1010.44 1010.04 1009.62 1009.18
1016.12 1016.25 1016.47 1016.76 1017.09 1017.42 1017.71 1017.95 1018.13 1018.25 1018.34 1018.40 1018.46 1018.51 1018.56 1018.59 1018.59 1018.56 1018.48 1018.35 1018.18 1017.98 1017.76 1017.53 1017.30 1017.06 1016.79 1016.48 1016.11 1015.67 1015.15 1014.56 1013.92 1013.24 1012.57 1011.92 1011.31 1010.75 1010.25 1009.78 1009.33 1008.88 1008.42
1016.12 1016.26 1016.50 1016.80 1017.14 1017.47 1017.77 1018.00 1018.17 1018.28 1018.35 1018.39 1018.41 1018.42 1018.42 1018.41 1018.36 1018.28 1018.14 1017.96 1017.75 1017.51 1017.26 1017.01 1016.77 1016.52 1016.27 1015.99 1015.66 1015.26 1014.78 1014.22 1013.59 1012.91 1012.22 1011.53 1010.86 1010.23 1009.66 1009.12 1008.62 1008.13 1007.66
1016.20 1016.37 1016.63 1016.96 1017.31 1017.65 1017.93 1018.15 1018.30 1018.38 1018.42 1018.42 1018.40 1018.37 1018.34 1018.28 1018.19 1018.05 1017.87 1017.64 1017.38 1017.09 1016.79 1016.51 1016.24 1015.98 1015.73 1015.46 1015.15 1014.78 1014.34 1013.82 1013.21 1012.55 1011.84 1011.12 1010.41 1009.73 1009.09 1008.49 1007.93 1007.41 1006.91
1016.37 1016.60 1016.91 1017.26 1017.62 1017.94 1018.21 1018.39 1018.51 1018.55 1018.54 1018.51 1018.46 1018.40 1018.33 1018.24 1018.11 1017.95 1017.73 1017.46 1017.15 1016.81 1016.47 1016.14 1015.82 1015.53 1015.25 1014.97 1014.67 1014.31 1013.89 1013.39 1012.81 1012.15 1011.45 1010.71 1009.97 1009.25 1008.55 1007.90 1007.29 1006.72 1006.18
1016.65 1016.95 1017.30 1017.67 1018.03 1018.33 1018.56 1018.71 1018.77 1018.77 1018.72 1018.65 1018.57 1018.50 1018.41 1018.31 1018.17 1017.99 1017.75 1017.45 1017.11 1016.73 1016.34 1015.95 1015.58 1015.24 1014.91 1014.60 1014.27 1013.90 1013.48 1012.98 1012.41 1011.76 1011.05 1010.30 1009.54 1008.78 1008.04 1007.34 1006.67 1006.06 1005.48
Thickness
5753 5753 5755 5755 5756 5756 5755 5756 5756 5756 5755 5754 5754 5754 5753 5752 5751 5750 5749 5748 5746 5745 5743 5741 5740 5738 5736 5735 5733 5732 5731 5730 5728 5727 5725 5724 5723 5722 5721 5720 5719 5717 5716
5752 5753 5753 5754 5754 5754 5754 5754 5754 5754 5753 5753 5752 5752 5751 5751 5750 5750 5749 5747 5746 5744 5742 5741 5739 5738 5736 5734 5733 5732 5731 5729 5728 5726 5725 5724 5723 5722 5721 5720 5718 5717 5715
5753 5753 5753 5753 5753 5753 5753 5753 5753 5753 5752 5751 5750 5750 5750 5749 5749 5749 5748 5747 5745 5744 5742 5741 5739 5737 5736 5734 5733 5732 5731 5729 5728 5726 5724 5723 5723 5722 5721 5719 5717 5716 5715
5753 5752 5752 5752 5752 5752 5752 5752 5752 5751 5749 5748 5748 5748 5748 5748 5748 5748 5747 5746 5744 5743 5742 5740 5738 5737 5735 5734 5732 5731 5730 5728 5727 5726 5724 5723 5722 5721 5720 5718 5717 5715 5714
5753 5752 5752 5752 5752 5751 5751 5751 5750 5749 5747 5746 5746 5746 5746 5745 5746 5746 5746 5745 5744 5742 5740 5739 5737 5736 5734 5733 5731 5730 5728 5727 5726 5725 5724 5723 5722 5720 5719 5717 5716 5714 5713
5753 5752 5751 5751 5751 5750 5749 5749 5748 5747 5745 5744 5744 5743 5743 5744 5744 5744 5743 5743 5742 5740 5739 5738 5736 5735 5733 5732 5731 5730 5728 5727 5726 5725 5724 5722 5721 5720 5718 5717 5715 5714 5713
5754 5752 5751 5750 5750 5749 5748 5747 5746 5743 5741 5741 5739 5737 5739 5741 5741 5741 5741 5740 5739 5739 5737 5736 5735 5733 5732 5732 5730 5729 5728 5727 5725 5724 5723 5722 5720 5719 5718 5716 5715 5713 5712
5754 5753 5752 5750 5749 5748 5746 5745 5744 5741 5740 5739 5736 5732 5730 5731 5735 5738 5738 5738 5737 5736 5736 5735 5733 5732 5731 5730 5729 5728 5727 5725 5724 5723 5722 5721 5720 5719 5717 5716 5714 5713 5711
5753 5753 5752 5751 5749 5748 5745 5744 5743 5740 5737 5737 5737 5733 5727 5724 5728 5733 5735 5735 5735 5734 5734 5733 5732 5731 5730 5729 5728 5727 5726 5725 5724 5723 5722 5721 5719 5718 5716 5715 5714 5712 5710
5753 5753 5752 5750 5749 5747 5745 5744 5743 5741 5738 5735 5734 5734 5733 5731 5725 5724 5729 5732 5732 5732 5732 5732 5731 5730 5729 5728 5727 5726 5725 5724 5723 5722 5721 5720 5718 5717 5715 5714 5712 5711 5709
5753 5752 5751 5749 5748 5747 5745 5743 5742 5741 5739 5736 5734 5732 5730 5729 5728 5723 5722 5725 5728 5730 5730 5730 5729 5729 5728 5727 5726 5725 5724 5723 5721 5720 5720 5718 5717 5715 5714 5713 5711 5710 5708
5751 5751 5750 5749 5747 5746 5745 5743 5742 5741 5739 5737 5735 5733 5730 5728 5726 5724 5721 5722 5723 5727 5729 5729 5728 5727 5726 5725 5724 5723 5722 5721 5720 5719 5718 5717 5715 5714 5712 5711 5709 5708 5706
5750 5750 5749 5748 5747 5746 5744 5743 5741 5740 5739 5736 5734 5732 5731 5730 5729 5726 5723 5721 5721 5724 5725 5727 5727 5726 5725 5724 5723 5722 5721 5720 5719 5718 5716 5715 5713 5712 5711 5709 5708 5706 5704
5751 5751 5749 5748 5747 5746 5744 5742 5741 5739 5738 5736 5734 5732 5730 5729 5728 5726 5724 5721 5717 5718 5720 5723 5725 5724 5723 5723 5722 5721 5719 5718 5717 5716 5715 5713 5711 5710 5709 5707 5706 5704 5702
5752 5751 5749 5748 5746 5745 5743 5741 5739 5737 5736 5734 5733 5731 5729 5728 5727 5726 5724 5722 5717 5714 5715 5719 5720 5722 5722 5721 5720 5719 5718 5717 5715 5714 5713 5711 5710 5709 5707 5705 5703 5702 5700
5751 5750 5748 5747 5746 5744 5742 5739 5737 5736 5734 5732 5731 5729 5728 5726 5725 5723 5722 5720 5719 5716 5713 5716 5717 5718 5718 5718 5717 5716 5715 5714 5713 5712 5710 5709 5708 5706 5705 5703 5701 5699 5698
5751 5749 5747 5745 5744 5742 5740 5738 5735 5733 5731 5729 5728 5727 5725 5724 5722 5721 5720 5718 5716 5714 5711 5713 5714 5715 5714 5714 5714 5713 5712 5711 5710 5709 5707 5706 5705 5703 5702 5700 5698 5697 5695
5749 5747 5745 5743 5742 5740 5738 5736 5734 5731 5729 5727 5725 5724 5722 5721 5719 5718 5717 5715 5714 5712 5710 5709 5710 5710 5710 5710 5710 5708 5708 5707 5706 5705 5704 5702 5701 5699 5698 5696 5694 5693 5691
5746 5745 5743 5741 5740 5738 5736 5735 5733 5730 5728 5725 5723 5721 5720 5718 5716 5715 5713 5712 5711 5710 5708 5706 5705 5706 5705 5705 5704 5703 5703 5702 5701 5701 5699 5698 5697 5696 5694 5693 5691 5689 5687
5742 5741 5740 5739 5738 5736 5734 5732 5730 5727 5725 5723 5721 5719 5717 5716 5714 5712 5711 5709 5707 5706 5704 5702 5701 5700 5699 5699 5698 5697 5696 5696 5695 5696 5695 5693 5692 5691 5689 5688 5687 5685 5683
5738 5737 5736 5735 5734 5733 5731 5729 5726 5724 5722 5720 5718 5716 5715 5714 5713 5711 5709 5707 5705 5702 5700 5698 5696 5695 5694 5692 5692 5691 5690 5690 5690 5689 5689 5688 5687 5685 5684 5683 5682 5681 5679
5733 5732 5731 5731 5730 5730 5729 5726 5723 5720 5718 5716 5714 5713 5712 5711 5710 5708 5707 5705 5703 5699 5697 5694 5692 5690 5690 5689 5687 5686 5684 5682 5683 5684 5682 5682 5680 5679 5679 5678 5677 5676 5674
5728 5727 5726 5725 5725 5725 5724 5722 5719 5716 5714 5713 5711 5709 5709 5708 5706 5704 5702 5701 5699 5697 5695 5692 5689 5688 5686 5685 5682 5680 5678 5677 5677 5678 5675 5675 5675 5673 5673 5673 5672 5671 5669
5723 5721 5720 5719 5719 5719 5718 5715 5713 5710 5709 5708 5706 5705 5702 5701 5700 5697 5696 5694 5693 5691 5690 5687 5686 5685 5683 5681 5678 5676 5674 5672 5671 5670 5668 5668 5669 5668 5668 5667 5666 5665 5663
5717 5715 5715 5713 5712 5712 5711 5709 5706 5704 5702 5701 5700 5698 5696 5695 5694 5691 5688 5686 5685 5684 5683 5681 5680 5678 5676 5674 5672 5669 5666 5664 5664 5664 5662 5660 5662 5661 5661 5661 5661 5659 5658
5710 5709 5707 5706 5705 5704 5704 5702 5699 5697 5695 5694 5693 5692 5689 5688 5687 5683 5681 5678 5677 5677 5674 5673 5670 5669 5668 5666 5664 5662 5660 5657 5656 5656 5657 5653 5653 5651 5653 5656 5654 5653 5651